When you browse on this site, cookies collect data to enhance your experience and personalize the content and advertising you see.
Visit our Privacy Policy to learn more. By continuing to use the site, you agree to this use of cookies and data.
  • En España
  • Lista de países
  • Para 7 días
  • Temperatura del agua
  • Mapa Satelital
  • El tiempo en el mapa
  • Informadores
  • user-avatar
    Iniciar sesión

    Tiempo cada hora Lucknow

    Hoy, 19 Abril, Viernes

    Tiempo Temperatura Precipitaciones Viento Presión Humedad
    00:00 +29°C° 0 mm 2 mps 744 mmHg 34%
    01:00 +29°C° 0 mm 2 mps 744 mmHg 35%
    02:00 +28°C° 0 mm 2 mps 744 mmHg 36%
    03:00 +28°C° 0 mm 1 mps 744 mmHg 37%
    04:00 +27°C° 0 mm 1 mps 743 mmHg 38%
    05:00 +27°C° 0 mm 1 mps 743 mmHg 40%
    06:00 +28°C° 0 mm 1 mps 744 mmHg 37%
    07:00 +30°C° 0 mm 1 mps 744 mmHg 34%
    08:00 +31°C° 0 mm 2 mps 745 mmHg 31%
    09:00 +34°C° 0 mm 3 mps 745 mmHg 28%
    10:00 +35°C° 0 mm 3 mps 745 mmHg 25%
    11:00 +36°C° 0 mm 4 mps 745 mmHg 22%
    12:00 +37°C° 0 mm 4 mps 744 mmHg 21%
    13:00 +39°C° 0 mm 5 mps 744 mmHg 20%
    14:00 +39°C° 0 mm 5 mps 743 mmHg 19%
    15:00 +39°C° 0 mm 5 mps 742 mmHg 19%
    16:00 +37°C° 0 mm 5 mps 742 mmHg 20%
    17:00 +37°C° 0 mm 5 mps 742 mmHg 21%
    18:00 +35°C° 0 mm 4 mps 742 mmHg 23%
    19:00 +34°C° 0 mm 4 mps 742 mmHg 25%
    20:00 +33°C° 0 mm 3 mps 743 mmHg 27%
    21:00 +33°C° 0 mm 3 mps 742 mmHg 28%
    22:00 +31°C° 0 mm 3 mps 742 mmHg 29%
    23:00 +30°C° 0 mm 2 mps 742 mmHg 30%

    Mañana, 20 Abril, Sábado

    Tiempo Temperatura Precipitaciones Viento Presión Humedad
    00:00 +30°C° 0 mm 2 mps 742 mmHg 31%
    01:00 +29°C° 0 mm 2 mps 742 mmHg 32%
    02:00 +29°C° 0 mm 2 mps 741 mmHg 33%
    03:00 +29°C° 0 mm 2 mps 741 mmHg 34%
    04:00 +28°C° 0 mm 1 mps 741 mmHg 35%
    05:00 +28°C° 0 mm 1 mps 742 mmHg 36%
    06:00 +29°C° 0 mm 1 mps 742 mmHg 33%
    07:00 +31°C° 0 mm 1 mps 743 mmHg 29%
    08:00 +31°C° 0 mm 0 mps 744 mmHg 26%
    09:00 +34°C° 0 mm 1 mps 744 mmHg 24%
    10:00 +35°C° 0 mm 1 mps 744 mmHg 21%
    11:00 +38°C° 0 mm 2 mps 744 mmHg 19%
    12:00 +38°C° 0 mm 2 mps 743 mmHg 18%
    13:00 +39°C° 0 mm 3 mps 742 mmHg 17%
    14:00 +40°C° 0 mm 3 mps 741 mmHg 15%
    15:00 +39°C° 0 mm 3 mps 741 mmHg 15%
    16:00 +39°C° 0 mm 3 mps 740 mmHg 15%
    17:00 +39°C° 0 mm 3 mps 740 mmHg 15%
    18:00 +38°C° 0 mm 2 mps 740 mmHg 17%
    19:00 +37°C° 0 mm 2 mps 741 mmHg 18%
    20:00 +35°C° 0 mm 2 mps 741 mmHg 19%
    21:00 +35°C° 0 mm 2 mps 741 mmHg 20%
    22:00 +35°C° 0 mm 2 mps 741 mmHg 21%
    23:00 +34°C° 0 mm 2 mps 741 mmHg 21%

    Pasado mañana, 21 Abril, Domingo

    Tiempo Temperatura Precipitaciones Viento Presión Humedad
    00:00 +32°C° 0 mm 2 mps 741 mmHg 22%
    01:00 +32°C° 0 mm 2 mps 740 mmHg 23%
    02:00 +31°C° 0 mm 2 mps 740 mmHg 25%
    03:00 +30°C° 0 mm 1 mps 740 mmHg 26%
    04:00 +30°C° 0 mm 1 mps 740 mmHg 27%
    05:00 +30°C° 0 mm 1 mps 740 mmHg 28%
    06:00 +31°C° 0 mm 1 mps 741 mmHg 25%
    07:00 +33°C° 0 mm 1 mps 742 mmHg 23%
    08:00 +35°C° 0 mm 1 mps 742 mmHg 21%
    09:00 +36°C° 0 mm 1 mps 742 mmHg 19%
    10:00 +39°C° 0 mm 2 mps 742 mmHg 17%
    11:00 +40°C° 0 mm 3 mps 742 mmHg 14%
    12:00 +42°C° 0 mm 3 mps 741 mmHg 13%
    13:00 +43°C° 0 mm 3 mps 741 mmHg 13%
    14:00 +43°C° 0 mm 4 mps 740 mmHg 12%
    15:00 +43°C° 0 mm 4 mps 739 mmHg 12%
    16:00 +43°C° 0 mm 4 mps 739 mmHg 12%
    17:00 +42°C° 0 mm 4 mps 739 mmHg 12%
    18:00 +40°C° 0 mm 3 mps 739 mmHg 13%
    19:00 +38°C° 0 mm 2 mps 740 mmHg 15%
    20:00 +37°C° 0 mm 2 mps 740 mmHg 16%
    21:00 +35°C° 0 mm 1 mps 740 mmHg 17%
    22:00 +35°C° 0 mm 1 mps 740 mmHg 17%
    23:00 +32°C° 0 mm 0 mps 740 mmHg 18%

    22 Abril, Lunes

    Tiempo Temperatura Precipitaciones Viento Presión Humedad
    00:00 +34°C° 0 mm 1 mps 740 mmHg 19%
    01:00 +33°C° 0 mm 1 mps 739 mmHg 20%
    02:00 +32°C° 0 mm 1 mps 739 mmHg 20%
    03:00 +32°C° 0 mm 1 mps 739 mmHg 21%
    04:00 +29°C° 0 mm 0 mps 739 mmHg 22%
    05:00 +29°C° 0 mm 0 mps 740 mmHg 23%
    06:00 +32°C° 0 mm 1 mps 740 mmHg 21%
    07:00 +35°C° 0 mm 2 mps 741 mmHg 19%
    08:00 +37°C° 0 mm 3 mps 742 mmHg 18%
    09:00 +39°C° 0 mm 3 mps 742 mmHg 16%
    10:00 +40°C° 0 mm 2 mps 742 mmHg 14%
    11:00 +42°C° 0 mm 2 mps 742 mmHg 13%
    12:00 +44°C° 0 mm 3 mps 741 mmHg 11%
    13:00 +45°C° 0 mm 4 mps 740 mmHg 10%
    14:00 +47°C° 0 mm 4 mps 739 mmHg 9%
    15:00 +45°C° 0 mm 4 mps 739 mmHg 9%
    16:00 +45°C° 0 mm 4 mps 739 mmHg 9%
    17:00 +45°C° 0 mm 3 mps 738 mmHg 9%
    18:00 +43°C° 0 mm 3 mps 739 mmHg 11%
    19:00 +40°C° 0 mm 3 mps 739 mmHg 12%
    20:00 +38°C° 0 mm 3 mps 740 mmHg 13%
    21:00 +37°C° 0 mm 3 mps 740 mmHg 14%
    22:00 +37°C° 0 mm 3 mps 740 mmHg 16%
    23:00 +36°C° 0 mm 3 mps 740 mmHg 17%

    23 Abril, Martes

    Tiempo Temperatura Precipitaciones Viento Presión Humedad
    00:00 +35°C° 0 mm 3 mps 740 mmHg 19%
    01:00 +34°C° 0 mm 4 mps 739 mmHg 21%
    02:00 +34°C° 0 mm 4 mps 739 mmHg 23%
    03:00 +34°C° 0 mm 4 mps 740 mmHg 24%
    04:00 +33°C° 0 mm 3 mps 740 mmHg 25%
    05:00 +33°C° 0 mm 3 mps 740 mmHg 26%
    06:00 +34°C° 0 mm 4 mps 741 mmHg 26%
    07:00 +35°C° 0 mm 4 mps 742 mmHg 25%
    08:00 +36°C° 0 mm 5 mps 742 mmHg 24%
    09:00 +38°C° 0 mm 4 mps 742 mmHg 22%
    10:00 +41°C° 0 mm 4 mps 742 mmHg 20%
    11:00 +42°C° 0 mm 3 mps 742 mmHg 18%
    12:00 +43°C° 0 mm 3 mps 742 mmHg 15%
    13:00 +45°C° 0 mm 4 mps 741 mmHg 12%
    14:00 +47°C° 0 mm 4 mps 740 mmHg 10%
    15:00 +45°C° 0 mm 4 mps 740 mmHg 10%
    16:00 +45°C° 0 mm 4 mps 739 mmHg 9%
    17:00 +45°C° 0 mm 4 mps 739 mmHg 9%
    18:00 +43°C° 0 mm 3 mps 739 mmHg 11%
    19:00 +40°C° 0 mm 2 mps 740 mmHg 13%
    20:00 +38°C° 0 mm 2 mps 740 mmHg 15%
    21:00 +38°C° 0 mm 2 mps 740 mmHg 18%
    22:00 +37°C° 0 mm 3 mps 740 mmHg 21%
    23:00 +36°C° 0 mm 3 mps 741 mmHg 24%

    24 Abril, Miércoles

    Tiempo Temperatura Precipitaciones Viento Presión Humedad
    00:00 +35°C° 0 mm 3 mps 740 mmHg 26%
    01:00 +35°C° 0 mm 3 mps 740 mmHg 27%
    02:00 +34°C° 0 mm 3 mps 740 mmHg 29%
    03:00 +34°C° 0 mm 4 mps 740 mmHg 31%
    04:00 +33°C° 0 mm 4 mps 741 mmHg 34%
    05:00 +33°C° 0 mm 4 mps 741 mmHg 37%
    06:00 +34°C° 0 mm 5 mps 742 mmHg 36%
    07:00 +36°C° 0 mm 5 mps 742 mmHg 34%
    08:00 +38°C° 0 mm 6 mps 743 mmHg 33%
    09:00 +40°C° 0 mm 5 mps 743 mmHg 29%
    10:00 +42°C° 0 mm 5 mps 743 mmHg 25%
    11:00 +43°C° 0 mm 4 mps 743 mmHg 21%
    12:00 +44°C° 0 mm 3 mps 742 mmHg 19%
    13:00 +45°C° 0 mm 2 mps 742 mmHg 17%
    14:00 +45°C° 0 mm 1 mps 741 mmHg 15%
    15:00 +45°C° 0 mm 2 mps 740 mmHg 16%
    16:00 +45°C° 0 mm 2 mps 740 mmHg 16%
    17:00 +45°C° 0 mm 3 mps 740 mmHg 16%
    18:00 +43°C° 0 mm 3 mps 740 mmHg 18%
    19:00 +42°C° 0 mm 3 mps 741 mmHg 20%
    20:00 +40°C° 0 mm 4 mps 741 mmHg 23%
    21:00 +38°C° 0 mm 4 mps 741 mmHg 24%
    22:00 +38°C° 0 mm 3 mps 741 mmHg 26%
    23:00 +37°C° 0 mm 3 mps 741 mmHg 27%
    Mostrar más